Humidity-temperature Sensor

Selected Measurement Type: Relative Humidity

 
Relative Humidity [%]     6 entries per hour
Showing data from 2/13/2023 (00:00:00 Z) to 2/10/2023 (00:01:00 Z)
Previous Next [ Day | 3-Days | 7-Days ]
First Last
Prev [ Day | 3-Days | 7-Days ] Next
First Last

Start Time:     :
End Time:     :     
Time (in GMT) :00 :50 :40 :30 :20 :10
Previous Next [ Day | 3-Days | 7-Days ]
First Last
Prev [ Day | 3-Days | 7-Days ] Next
First Last


123 => good data
MM => data is determined as missing
-- => data not received/configured
Back to Top Back to Top
2/13/2023 00:00 to 23:10 87.98 88.00 87.98 87.53 87.18 87.45
2/12/2023 23:00 to 22:10 87.24 87.70 87.24 87.10 86.96 87.31
2/12/2023 22:00 to 21:10 87.24 86.98 86.92 86.71 86.96 86.79
2/12/2023 21:00 to 20:10 86.57 86.85 86.83 87.08 87.06 86.87
2/12/2023 20:00 to 19:10 86.90 86.79 86.42 86.42 86.57 86.32
2/12/2023 19:00 to 18:10 86.59 86.92 86.05 85.79 85.46 85.21
2/12/2023 18:00 to 17:10 84.47 83.65 83.18 83.85 83.18 82.37
2/12/2023 17:00 to 16:10 82.29 82.56 82.25 82.91 83.01 83.85
2/12/2023 16:00 to 15:10 83.32 84.22 84.86 83.89 83.01 83.42
2/12/2023 15:00 to 14:10 83.13 83.11 83.77 83.81 83.53 83.79
2/12/2023 14:00 to 13:10 85.11 85.56 85.09 84.88 85.19 86.61
2/12/2023 13:00 to 12:10 87.31 87.84 87.78 88.00 88.42 88.46
2/12/2023 12:00 to 11:10 88.56 88.50 88.64 88.72 88.91 89.11
2/12/2023 11:00 to 10:10 89.24 88.68 88.56 89.32 89.63 89.59
2/12/2023 10:00 to 9:10 89.79 89.85 90.10 89.96 90.12 90.12
2/12/2023 09:00 to 8:10 90.08 90.00 89.96 90.33 90.80 90.63
2/12/2023 08:00 to 7:10 90.47 90.33 90.20 90.59 90.53 90.80
2/12/2023 07:00 to 6:10 90.74 90.84 90.94 90.76 90.35 90.16
2/12/2023 06:00 to 5:10 90.43 90.14 89.83 89.81 89.57 89.65
2/12/2023 05:00 to 4:10 89.48 89.34 89.28 89.63 89.85 90.02
2/12/2023 04:00 to 3:10 90.10 90.08 89.94 90.10 90.06 90.22
2/12/2023 03:00 to 2:10 90.49 90.35 90.20 90.02 89.69 89.40
2/12/2023 02:00 to 1:10 89.69 89.94 89.63 89.67 89.83 90.16
2/12/2023 01:00 to 0:10 90.49 90.45 90.66 90.63 90.51 90.43
2/12/2023 00:00 to 23:10 90.27 89.92 89.75 89.90 90.02 90.22
2/11/2023 23:00 to 22:10 90.43 90.49 90.74 90.90 91.17 91.05
2/11/2023 22:00 to 21:10 91.03 90.86 90.63 90.43 90.20 89.98
2/11/2023 21:00 to 20:10 90.18 90.49 90.14 89.75 89.48 89.63
2/11/2023 20:00 to 19:10 90.04 89.81 89.71 89.48 90.27 90.10
2/11/2023 19:00 to 18:10 89.53 89.81 91.15 91.33 91.68 91.64
2/11/2023 18:00 to 17:10 91.52 91.23 90.74 90.39 90.22 90.24
2/11/2023 17:00 to 16:10 89.98 89.59 89.48 89.28 89.18 89.07
2/11/2023 16:00 to 15:10 88.91 88.68 88.56 88.50 87.84 87.84
2/11/2023 15:00 to 14:10 87.63 88.31 88.09 87.88 87.70 88.52
2/11/2023 14:00 to 13:10 89.36 89.61 89.92 89.53 89.03 88.17
2/11/2023 13:00 to 12:10 88.00 88.19 88.15 88.70 88.35 88.07
2/11/2023 12:00 to 11:10 88.46 89.26 89.09 89.13 89.11 88.81
2/11/2023 11:00 to 10:10 88.33 88.60 88.66 88.91 89.16 89.34
2/11/2023 10:00 to 9:10 89.34 89.63 89.24 89.03 89.55 89.67
2/11/2023 09:00 to 8:10 89.42 89.13 88.85 88.48 88.40 88.62
2/11/2023 08:00 to 7:10 88.93 88.91 88.46 88.56 88.74 88.81
2/11/2023 07:00 to 6:10 88.44 87.96 87.98 87.98 87.76 87.59
2/11/2023 06:00 to 5:10 87.76 88.07 87.88 87.80 87.74 87.37
2/11/2023 05:00 to 4:10 87.29 86.90 86.77 86.53 86.77 86.87
2/11/2023 04:00 to 3:10 87.29 87.16 87.70 87.61 87.80 87.76
2/11/2023 03:00 to 2:10 87.24 86.90 86.67 86.71 86.63 86.63
2/11/2023 02:00 to 1:10 86.61 86.81 86.87 87.16 86.83 86.67
2/11/2023 01:00 to 0:10 86.61 86.61 86.11 86.59 86.94 86.96
2/11/2023 00:00 to 23:10 86.98 86.75 87.02 87.43 87.39 87.08
2/10/2023 23:00 to 22:10 86.73 87.31 87.12 87.61 88.11 87.68
2/10/2023 22:00 to 21:10 87.10 86.42 86.57 87.45 88.13 88.35
2/10/2023 21:00 to 20:10 87.80 87.00 86.22 85.46 85.72 86.38
2/10/2023 20:00 to 19:10 86.77 86.67 86.79 87.39 87.72 87.43
2/10/2023 19:00 to 18:10 87.41 87.22 87.06 86.87 86.81 87.12
2/10/2023 18:00 to 17:10 87.41 87.57 87.84 87.92 87.33 87.16
2/10/2023 17:00 to 16:10 87.39 86.83 87.47 87.98 88.74 88.68
2/10/2023 16:00 to 15:10 88.74 88.23 88.03 87.98 88.27 88.54
2/10/2023 15:00 to 14:10 88.33 88.25 89.03 89.48 89.67 89.59
2/10/2023 14:00 to 13:10 89.59 89.55 89.63 89.96 90.08 90.39
2/10/2023 13:00 to 12:10 90.68 90.92 90.92 90.98 91.00 91.25
2/10/2023 12:00 to 11:10 91.42 91.72 92.03 91.79 91.95 91.77
2/10/2023 11:00 to 10:10 91.62 91.56 91.66 91.87 91.79 92.18
2/10/2023 10:00 to 9:10 92.07 92.05 91.87 91.74 91.72 91.87
2/10/2023 09:00 to 8:10 92.14 92.28 92.18 91.99 91.56 91.48
2/10/2023 08:00 to 7:10 91.72 91.50 91.31 91.03 91.03 91.15
2/10/2023 07:00 to 6:10 91.13 91.29 91.11 91.35 91.83 91.60
2/10/2023 06:00 to 5:10 91.58 91.64 91.33 90.88 90.63 90.63
2/10/2023 05:00 to 4:10 90.90 90.84 90.61 90.43 90.06 89.85
2/10/2023 04:00 to 3:10 90.02 89.57 89.44 89.42 89.38 89.40
2/10/2023 03:00 to 2:10 89.18 89.09 88.66 88.52 89.03 89.22
2/10/2023 02:00 to 1:10 89.13 88.85 88.77 88.89 89.18 89.26
2/10/2023 01:00 to 0:10 89.40 89.18 89.50 89.57 89.32 89.36